Flag for Switzerland Weather past 2 weeks in Chur, Graubünden, Switzerland

Now
63 °F

Mild.


Feels Like: 63 °F
Forecast: 58 / 70 °F
Wind: 8 mph from Northeast

Location: Chur-Ems

Current Time: Jul 29, 2014 at 8:08:29 PM

Latest Report: Jul 29, 2014 at 7:00 PM


Visibility: N/A

Pressure: 29.78 "Hg

Humidity: 86%

Dew point: 59 °F

Location of ChurLocation

Historic Weather in Chur — Graph

°F

Chur temperature yesterday

Maximum temperature yesterday: 76 °F (at 5:00 PM)
Minimum temperature yesterday: 57 °F (at 5:00 AM)
Average temperature yesterday: 66 °F

Past Weeks' High & Low Weather Summary

 TemperatureHumidityPressure
High93 °F (Jul 19, 3:00 PM)97% (Jul 22, 2:00 AM)30.22 "Hg (Jul 22, 2:00 AM)
Low54 °F (Jul 25, 6:00 AM)23% (Jul 19, 4:00 PM)29.70 "Hg (Jul 28, 6:00 PM)
Average67 °F72%29.96 "Hg
* Reported Jul 14 6:00 PM — Jul 29 6:00 PM, Chur, Weather by CustomWeather, © 2014

Note: Actual official high and low records may vary slightly from our data, if they occured in-between our weather recording intervals... More about our weather records

Advertising

Chur weather history for previous 24 hours

 ConditionsComfort  
Time TempWeatherWind HumidityBarometerVisibility
6:00 PM
Jul 29
65 °FMild.8 mph79%29.76 "HgN/A
5:00 PM66 °FMild.8 mph80%29.75 "HgN/A
4:00 PM65 °FMild.8 mph80%29.75 "HgN/A
3:00 PM66 °FMild.6 mph77%29.75 "HgN/A
2:00 PM67 °FLow clouds.8 mph69%29.74 "Hg5 mi
1:00 PM67 °FMild.3 mph70%29.74 "HgN/A
12:00 PM66 °FMild.3 mph69%29.75 "HgN/A
11:00 AM65 °FLow clouds.6 mph76%29.78 "Hg11 mi
10:00 AM66 °FMild.5 mph85%29.78 "HgN/A
9:00 AM60 °FCool.5 mph92%29.80 "HgN/A
8:00 AM58 °FHeavy rain. Low clouds.No wind94%29.81 "Hg3 mi
7:00 AM60 °FCool.2 mph81%29.79 "HgN/A
6:00 AM60 °FCool.8 mph83%29.78 "HgN/A
5:00 AM61 °FFog.7 mph81%29.78 "Hg3 mi
4:00 AM61 °FCool.8 mph84%29.78 "HgN/A
3:00 AM61 °FCool.7 mph83%29.80 "HgN/A
2:00 AM61 °FFog.8 mph84%29.81 "Hg5 mi
1:00 AM61 °FCool.6 mph87%29.83 "HgN/A
12:00 AM64 °FMild.8 mph74%29.81 "HgN/A
11:00 PM
Jul 28
64 °FFog.12 mph77%29.82 "Hg5 mi
10:00 PM65 °FMild.12 mph76%29.80 "HgN/A
9:00 PM69 °FMild.12 mph68%29.76 "HgN/A
8:00 PM71 °FFog.8 mph72%29.73 "Hg7 mi
Weather by CustomWeather, © 2014

See weather overviewHow to use our weather pages